Time,TemperatureF,DewpointF,PressureIn,WindDirection,WindDirectionDegrees,WindSpeedMPH,WindSpeedGustMPH,Humidity,HourlyPrecipIn,Conditions,Clouds,dailyrainin,SolarRadiationWatts/m^2,SoftwareType,DateUTC
2013-11-11 00:22:00,33.0,33.0,-100.00,NE,51,1.0,6.0,100,0.02,,,0.21,0.000000,,2013-11-11 09:22:00,
2013-11-11 00:33:00,33.0,33.0,-100.00,NE,51,1.0,6.0,100,0.02,,,0.21,0.000000,,2013-11-11 09:33:00,
2013-11-11 00:43:00,33.0,33.0,-100.00,NE,51,1.0,6.0,100,0.02,,,0.21,0.000000,,2013-11-11 09:43:00,
2013-11-11 00:53:00,33.0,33.0,-100.00,NE,51,1.0,6.0,100,0.02,,,0.21,0.000000,,2013-11-11 09:53:00,
2013-11-11 01:23:00,33.0,33.0,-100.00,WNW,296,1.0,6.0,100,0.01,,,-99.99,0.000000,,2013-11-11 10:23:00,
2013-11-11 01:32:00,33.0,33.0,-100.00,WNW,296,1.0,6.0,100,0.01,,,-99.99,0.000000,,2013-11-11 10:32:00,
2013-11-11 01:42:00,33.0,33.0,-100.00,WNW,296,1.0,6.0,100,0.01,,,-99.99,0.000000,,2013-11-11 10:42:00,
2013-11-11 01:52:00,33.0,33.0,-100.00,WNW,296,1.0,6.0,100,0.01,,,-99.99,0.000000,,2013-11-11 10:52:00,
2013-11-11 03:21:00,33.0,33.0,-100.00,East,86,1.0,5.0,100,-99.99,,,-99.99,0.000000,,2013-11-11 12:21:00,
2013-11-11 03:32:00,33.0,33.0,-100.00,East,86,1.0,5.0,100,-99.99,,,-99.99,0.000000,,2013-11-11 12:32:00,
2013-11-11 03:42:00,33.0,33.0,-100.00,East,86,1.0,5.0,100,-99.99,,,-99.99,0.000000,,2013-11-11 12:42:00,
2013-11-11 03:52:00,33.0,33.0,-100.00,East,86,1.0,5.0,100,-99.99,,,-99.99,0.000000,,2013-11-11 12:52:00,
2013-11-11 04:21:00,33.0,33.0,-100.00,NNW,330,1.0,7.0,99,0.01,,,-99.99,0.000000,,2013-11-11 13:21:00,
2013-11-11 04:31:00,33.0,33.0,-100.00,NNW,330,1.0,7.0,99,0.01,,,-99.99,0.000000,,2013-11-11 13:31:00,
2013-11-11 04:42:00,33.0,33.0,-100.00,NNW,330,1.0,7.0,99,0.01,,,-99.99,0.000000,,2013-11-11 13:42:00,
2013-11-11 04:52:00,33.0,33.0,-100.00,NNW,330,1.0,7.0,99,0.01,,,-99.99,0.000000,,2013-11-11 13:52:00,
2013-11-11 05:21:00,33.0,32.0,-100.00,NNW,327,1.0,6.0,98,0.00,,,-99.99,0.000000,,2013-11-11 14:21:00,
2013-11-11 05:32:00,33.0,32.0,-100.00,NNW,327,1.0,6.0,98,0.00,,,-99.99,0.000000,,2013-11-11 14:32:00,
2013-11-11 05:42:00,33.0,32.0,-100.00,NNW,327,1.0,6.0,98,0.00,,,-99.99,0.000000,,2013-11-11 14:42:00,
2013-11-11 05:52:00,33.0,32.0,-100.00,NNW,327,1.0,6.0,98,0.00,,,-99.99,0.000000,,2013-11-11 14:52:00,
2013-11-11 06:21:00,33.0,32.0,-100.00,North,350,1.0,9.0,95,0.01,,,0.11,0.000000,,2013-11-11 15:21:00,
2013-11-11 06:33:00,33.0,32.0,-100.00,North,350,1.0,9.0,95,0.01,,,0.11,0.000000,,2013-11-11 15:33:00,
2013-11-11 06:43:00,33.0,32.0,-100.00,North,350,1.0,9.0,95,0.01,,,0.11,0.000000,,2013-11-11 15:43:00,
2013-11-11 06:53:00,33.0,32.0,-100.00,North,350,1.0,9.0,95,0.01,,,0.11,0.000000,,2013-11-11 15:53:00,
2013-11-11 07:23:00,33.0,30.0,-100.00,NW,306,2.0,11.0,90,0.00,,,0.10,0.000000,,2013-11-11 16:23:00,
2013-11-11 07:33:00,33.0,30.0,-100.00,NW,306,2.0,11.0,90,0.00,,,0.10,0.000000,,2013-11-11 16:33:00,
2013-11-11 07:42:00,33.0,30.0,-100.00,NW,306,2.0,11.0,90,0.00,,,0.10,0.000000,,2013-11-11 16:42:00,
2013-11-11 07:53:00,33.0,30.0,-100.00,NW,306,2.0,11.0,90,0.00,,,0.10,0.000000,,2013-11-11 16:53:00,
2013-11-11 08:22:00,32.0,29.0,-100.00,NNW,347,2.0,6.0,89,0.00,,,-99.99,0.000000,,2013-11-11 17:22:00,
2013-11-11 08:33:00,32.0,29.0,-100.00,NNW,347,2.0,6.0,89,0.00,,,-99.99,0.000000,,2013-11-11 17:33:00,
2013-11-11 08:42:00,32.0,29.0,-100.00,NNW,347,2.0,6.0,89,0.00,,,-99.99,0.000000,,2013-11-11 17:42:00,
2013-11-11 08:52:00,32.0,29.0,-100.00,NNW,347,2.0,6.0,89,0.00,,,-99.99,0.000000,,2013-11-11 17:52:00,
2013-11-11 09:23:00,30.0,27.0,-100.00,ENE,76,1.0,9.0,87,0.00,,,0.09,1.000000,,2013-11-11 18:23:00,
2013-11-11 09:32:00,30.0,27.0,-100.00,ENE,76,1.0,9.0,87,0.00,,,0.09,1.000000,,2013-11-11 18:32:00,
2013-11-11 09:42:00,30.0,27.0,-100.00,ENE,76,1.0,9.0,87,0.00,,,0.09,1.000000,,2013-11-11 18:42:00,
2013-11-11 09:52:00,30.0,27.0,-100.00,ENE,76,1.0,9.0,87,0.00,,,0.09,1.000000,,2013-11-11 18:52:00,
2013-11-11 10:22:00,30.0,30.0,-100.00,NE,54,1.0,8.0,100,0.00,,,0.09,4.000000,,2013-11-11 19:22:00,
2013-11-11 10:32:00,30.0,30.0,-100.00,NE,54,1.0,8.0,100,0.00,,,0.09,4.000000,,2013-11-11 19:32:00,
2013-11-11 10:42:00,30.0,30.0,-100.00,NE,54,1.0,8.0,100,0.00,,,0.09,4.000000,,2013-11-11 19:42:00,
2013-11-11 10:52:00,30.0,30.0,-100.00,NE,54,1.0,8.0,100,0.00,,,0.09,4.000000,,2013-11-11 19:52:00,
2013-11-11 11:22:00,31.0,31.0,-100.00,NNE,13,1.0,8.0,98,0.00,,,0.09,8.000000,,2013-11-11 20:22:00,
2013-11-11 11:32:00,31.0,31.0,-100.00,NNE,13,1.0,8.0,98,0.00,,,0.09,8.000000,,2013-11-11 20:32:00,
2013-11-11 11:42:00,31.0,31.0,-100.00,NNE,13,1.0,8.0,98,0.00,,,0.09,8.000000,,2013-11-11 20:42:00,
2013-11-11 11:52:00,31.0,31.0,-100.00,NNE,13,1.0,8.0,98,0.00,,,0.09,8.000000,,2013-11-11 20:52:00,
2013-11-11 12:21:00,32.0,28.0,-100.00,NNW,342,2.0,6.0,84,0.00,,,0.09,18.000000,,2013-11-11 21:21:00,
2013-11-11 12:34:00,32.0,28.0,-100.00,NNW,342,2.0,6.0,84,0.00,,,0.09,18.000000,,2013-11-11 21:34:00,
2013-11-11 12:43:00,32.0,28.0,-100.00,NNW,342,2.0,6.0,84,0.00,,,0.09,18.000000,,2013-11-11 21:43:00,
2013-11-11 12:54:00,32.0,28.0,-100.00,NNW,342,2.0,6.0,84,0.00,,,0.09,18.000000,,2013-11-11 21:54:00,
2013-11-11 13:23:00,32.0,25.0,-100.00,West,266,2.0,7.0,76,0.00,,,-99.99,18.000000,,2013-11-11 22:23:00,
2013-11-11 13:34:00,32.0,25.0,-100.00,West,266,2.0,7.0,76,0.00,,,-99.99,18.000000,,2013-11-11 22:34:00,
2013-11-11 13:43:00,32.0,25.0,-100.00,West,266,2.0,7.0,76,0.00,,,-99.99,18.000000,,2013-11-11 22:43:00,
2013-11-11 13:53:00,32.0,25.0,-100.00,West,266,2.0,7.0,76,0.00,,,-99.99,18.000000,,2013-11-11 22:53:00,
2013-11-11 14:22:00,33.0,26.0,-100.00,West,261,2.0,10.0,75,0.00,,,0.09,19.000000,,2013-11-11 23:22:00,
2013-11-11 14:33:00,33.0,26.0,-100.00,West,261,2.0,10.0,75,0.00,,,0.09,19.000000,,2013-11-11 23:33:00,
2013-11-11 14:42:00,33.0,26.0,-100.00,West,261,2.0,10.0,75,0.00,,,0.09,19.000000,,2013-11-11 23:42:00,
2013-11-11 14:53:00,33.0,26.0,-100.00,West,261,2.0,10.0,75,0.00,,,0.09,19.000000,,2013-11-11 23:53:00,
2013-11-11 15:22:00,31.0,26.0,-100.00,North,1,0.0,7.0,83,0.00,,,0.09,15.000000,,2013-11-12 00:22:00,
2013-11-11 15:32:00,31.0,26.0,-100.00,North,1,0.0,7.0,83,0.00,,,0.09,15.000000,,2013-11-12 00:32:00,
2013-11-11 15:42:00,31.0,26.0,-100.00,North,1,0.0,7.0,83,0.00,,,0.09,15.000000,,2013-11-12 00:42:00,
2013-11-11 15:52:00,31.0,26.0,-100.00,North,1,0.0,7.0,83,0.00,,,0.09,15.000000,,2013-11-12 00:52:00,
2013-11-11 16:21:00,30.0,27.0,-100.00,NNW,332,2.0,5.0,87,0.00,,,0.09,8.000000,,2013-11-12 01:21:00,
2013-11-11 16:32:00,30.0,27.0,-100.00,NNW,332,2.0,5.0,87,0.00,,,0.09,8.000000,,2013-11-12 01:32:00,
2013-11-11 16:42:00,30.0,27.0,-100.00,NNW,332,2.0,5.0,87,0.00,,,0.09,8.000000,,2013-11-12 01:42:00,
2013-11-11 16:52:00,30.0,27.0,-100.00,NNW,332,2.0,5.0,87,0.00,,,0.09,8.000000,,2013-11-12 01:52:00,
2013-11-11 17:22:00,30.0,23.0,-100.00,WNW,292,3.0,9.0,76,0.00,,,0.09,3.000000,,2013-11-12 02:22:00,
2013-11-11 17:32:00,30.0,23.0,-100.00,WNW,292,3.0,9.0,76,0.00,,,0.09,3.000000,,2013-11-12 02:32:00,
2013-11-11 17:42:00,30.0,23.0,-100.00,WNW,292,3.0,9.0,76,0.00,,,0.09,3.000000,,2013-11-12 02:42:00,
2013-11-11 17:52:00,30.0,23.0,-100.00,WNW,292,3.0,9.0,76,0.00,,,0.09,3.000000,,2013-11-12 02:52:00,
2013-11-11 18:21:00,27.0,21.0,-100.00,SSE,157,2.0,7.0,79,0.00,,,-99.99,0.000000,,2013-11-12 03:21:00,
2013-11-11 18:34:00,27.0,21.0,-100.00,SSE,157,2.0,7.0,79,0.00,,,-99.99,0.000000,,2013-11-12 03:34:00,
2013-11-11 18:44:00,27.0,21.0,-100.00,SSE,157,2.0,7.0,79,0.00,,,-99.99,0.000000,,2013-11-12 03:44:00,
2013-11-11 18:54:00,27.0,21.0,-100.00,SSE,157,2.0,7.0,79,0.00,,,-99.99,0.000000,,2013-11-12 03:54:00,
2013-11-11 19:24:00,28.0,21.0,-100.00,NW,318,2.0,9.0,76,0.00,,,0.09,0.000000,,2013-11-12 04:24:00,
2013-11-11 19:33:00,28.0,21.0,-100.00,NW,318,2.0,9.0,76,0.00,,,0.09,0.000000,,2013-11-12 04:33:00,
2013-11-11 19:43:00,28.0,21.0,-100.00,NW,318,2.0,9.0,76,0.00,,,0.09,0.000000,,2013-11-12 04:43:00,
2013-11-11 19:53:00,28.0,21.0,-100.00,NW,318,2.0,9.0,76,0.00,,,0.09,0.000000,,2013-11-12 04:53:00,
2013-11-11 20:23:00,26.0,20.0,-100.00,North,8,1.0,11.0,79,0.00,,,0.09,0.000000,,2013-11-12 05:23:00,
2013-11-11 20:34:00,26.0,20.0,-100.00,North,8,1.0,11.0,79,0.00,,,0.09,0.000000,,2013-11-12 05:34:00,
2013-11-11 20:43:00,26.0,20.0,-100.00,North,8,1.0,11.0,79,0.00,,,0.09,0.000000,,2013-11-12 05:43:00,
2013-11-11 20:53:00,26.0,20.0,-100.00,North,8,1.0,11.0,79,0.00,,,0.09,0.000000,,2013-11-12 05:53:00,
2013-11-11 21:22:00,24.0,22.0,-100.00,NNE,19,2.0,6.0,90,0.00,,,0.09,0.000000,,2013-11-12 06:22:00,
2013-11-11 21:32:00,24.0,22.0,-100.00,NNE,19,2.0,6.0,90,0.00,,,0.09,0.000000,,2013-11-12 06:32:00,
2013-11-11 21:42:00,24.0,22.0,-100.00,NNE,19,2.0,6.0,90,0.00,,,0.09,0.000000,,2013-11-12 06:42:00,
2013-11-11 21:52:00,24.0,22.0,-100.00,NNE,19,2.0,6.0,90,0.00,,,0.09,0.000000,,2013-11-12 06:52:00,
2013-11-11 22:21:00,24.0,21.0,-100.00,NW,319,2.0,9.0,89,0.00,,,-99.99,0.000000,,2013-11-12 07:21:00,
2013-11-11 22:32:00,24.0,21.0,-100.00,NW,319,2.0,9.0,89,0.00,,,-99.99,0.000000,,2013-11-12 07:32:00,
2013-11-11 22:42:00,24.0,21.0,-100.00,NW,319,2.0,9.0,89,0.00,,,-99.99,0.000000,,2013-11-12 07:42:00,
2013-11-11 22:52:00,24.0,21.0,-100.00,NW,319,2.0,9.0,89,0.00,,,-99.99,0.000000,,2013-11-12 07:52:00,
2013-11-11 23:21:00,21.0,20.0,-100.00,North,359,1.0,5.0,97,0.00,,,0.07,0.000000,,2013-11-12 08:21:00,
2013-11-11 23:32:00,21.0,20.0,-100.00,North,359,1.0,5.0,97,0.00,,,0.07,0.000000,,2013-11-12 08:32:00,
2013-11-11 23:42:00,21.0,20.0,-100.00,North,359,1.0,5.0,97,0.00,,,0.07,0.000000,,2013-11-12 08:42:00,
2013-11-11 23:52:00,21.0,20.0,-100.00,North,359,1.0,5.0,97,0.00,,,0.07,0.000000,,2013-11-12 08:52:00,